[keps] orb09050.amsat

Ray Hoad r.hoad at att.net
Thu Feb 19 19:53:27 PST 2009


SB KEPS @ AMSAT  $ORB09050.O
Orbital Elements  09050.OSCAR

HR AMSAT ORBITAL ELEMENTS FOR OSCAR SATELLITES
FROM WA5QGD FORT WORTH,TX February 19, 2009
Send Subscribe/unsubscribe to KEPS at 
http://www.amsat.org/mailman/listinfo/keps
BID: ORB09050.O
TO ALL RADIO AMATEURS BT

Satellite: AO-07
Catalog number: 07530
Epoch time:      09049.49647477
Element set:    0407
Inclination:      101.4403 deg
RA of node:       078.4796 deg
Eccentricity:    0.0012089
Arg of perigee:   140.7184 deg
Mean anomaly:     219.4770 deg
Mean motion:   12.53575372 rev/day
Decay rate:       -2.7e-07 rev/day^2
Epoch rev:           56784
Checksum:              323

Satellite: AO-10
Catalog number: 14129
Epoch time:      09050.24155992
Element set:     622
Inclination:      025.9943 deg
RA of node:       170.6626 deg
Eccentricity:    0.5973312
Arg of perigee:   199.4288 deg
Mean anomaly:     121.5356 deg
Mean motion:   02.05868041 rev/day
Decay rate:      -1.68e-06 rev/day^2
Epoch rev:           19319
Checksum:              316

Satellite: UO-11
Catalog number: 14781
Epoch time:      09049.13226665
Element set:    0890
Inclination:      098.1240 deg
RA of node:       092.4219 deg
Eccentricity:    0.0009297
Arg of perigee:   007.8418 deg
Mean anomaly:     352.2969 deg
Mean motion:   14.79693862 rev/day
Decay rate:      -1.61e-06 rev/day^2
Epoch rev:           34022
Checksum:              320

Satellite: RS-15
Catalog number: 23439
Epoch time:      09049.66522953
Element set:    0187
Inclination:      064.8148 deg
RA of node:       096.4783 deg
Eccentricity:    0.0146010
Arg of perigee:   074.6103 deg
Mean anomaly:     287.0898 deg
Mean motion:   11.27553116 rev/day
Decay rate:       -3.9e-07 rev/day^2
Epoch rev:           58275
Checksum:              329

Satellite: FO-29
Catalog number: 24278
Epoch time:      09049.75246804
Element set:     974
Inclination:      098.5715 deg
RA of node:       299.5973 deg
Eccentricity:    0.0350046
Arg of perigee:   297.3039 deg
Mean anomaly:     059.2861 deg
Mean motion:   13.52942113 rev/day
Decay rate:       -7.6e-07 rev/day^2
Epoch rev:           61773
Checksum:              353

Satellite: SO-33
Catalog number: 25509
Epoch time:      09049.23118486
Element set:    0390
Inclination:      031.4340 deg
RA of node:       005.1235 deg
Eccentricity:    0.0354171
Arg of perigee:   018.4021 deg
Mean anomaly:     342.9021 deg
Mean motion:   14.28240775 rev/day
Decay rate:       1.85e-06 rev/day^2
Epoch rev:           53881
Checksum:              272

Satellite: AO-40
Catalog number: 26609
Epoch time:      09046.94460257
Element set:     193
Inclination:      008.7482 deg
RA of node:       032.7758 deg
Eccentricity:    0.7951066
Arg of perigee:   175.9734 deg
Mean anomaly:     201.0405 deg
Mean motion:   01.25584130 rev/day
Decay rate:      -1.27e-06 rev/day^2
Epoch rev:            3810
Checksum:              301

Satellite: VO-52
Catalog number: 28650
Epoch time:      09049.25163569
Element set:    0158
Inclination:      097.7562 deg
RA of node:       114.6854 deg
Eccentricity:    0.0028332
Arg of perigee:   058.8726 deg
Mean anomaly:     301.5270 deg
Mean motion:   14.81552991 rev/day
Decay rate:      -1.62e-06 rev/day^2
Epoch rev:           20503
Checksum:              313

Satellite: PO-63
Catalog number: 29712
Epoch time:      09050.68815665
Element set:     249
Inclination:      097.8443 deg
RA of node:       109.8322 deg
Eccentricity:    0.0013293
Arg of perigee:   300.1164 deg
Mean anomaly:     059.8722 deg
Mean motion:   14.80446541 rev/day
Decay rate:       4.66e-06 rev/day^2
Epoch rev:           11408
Checksum:              307

/EX
SB KEPS @ AMSAT  $ORB09050.D
Orbital Elements  09050.MICROS

HR AMSAT ORBITAL ELEMENTS FOR THE MICROSATS
FROM WA5QGD FORT WORTH,TX February 19, 2009
Send Subscribe/unsubscribe to KEPS at 
http://www.amsat.org/mailman/listinfo/keps
BID: ORB09050.D
TO ALL RADIO AMATEURS BT

Satellite: AO-16
Catalog number: 20439
Epoch time:      09050.45384473
Element set:     538
Inclination:      098.2645 deg
RA of node:       024.3014 deg
Eccentricity:    0.0011075
Arg of perigee:   156.3129 deg
Mean anomaly:     203.8572 deg
Mean motion:   14.31816236 rev/day
Decay rate:        5.0e-08 rev/day^2
Epoch rev:           99630
Checksum:              288

Satellite: LO-19
Catalog number: 20442
Epoch time:      09048.50391374
Element set:    0459
Inclination:      098.2293 deg
RA of node:       030.1591 deg
Eccentricity:    0.0012087
Arg of perigee:   159.1827 deg
Mean anomaly:     200.9839 deg
Mean motion:   14.32052763 rev/day
Decay rate:       -1.5e-07 rev/day^2
Epoch rev:           99618
Checksum:              311

Satellite: AO-27
Catalog number: 22825
Epoch time:      09049.48505675
Element set:     180
Inclination:      098.4210 deg
RA of node:       006.7377 deg
Eccentricity:    0.0007502
Arg of perigee:   253.9944 deg
Mean anomaly:     106.0404 deg
Mean motion:   14.29258344 rev/day
Decay rate:       -9.0e-07 rev/day^2
Epoch rev:           80295
Checksum:              305

Satellite: IO-26
Catalog number: 22826
Epoch time:      09049.42611725
Element set:    0899
Inclination:      098.4140 deg
RA of node:       007.4810 deg
Eccentricity:    0.0008061
Arg of perigee:   250.3833 deg
Mean anomaly:     109.6469 deg
Mean motion:   14.29509664 rev/day
Decay rate:        3.0e-08 rev/day^2
Epoch rev:           80304
Checksum:              300

Satellite: GO-32
Catalog number: 25397
Epoch time:      09050.80143875
Element set:     825
Inclination:      098.3392 deg
RA of node:       079.3689 deg
Eccentricity:    0.0000645
Arg of perigee:   190.5221 deg
Mean anomaly:     169.5935 deg
Mean motion:   14.23155230 rev/day
Decay rate:        2.6e-07 rev/day^2
Epoch rev:           55143
Checksum:              308

Satellite: NO-44
Catalog number: 26931
Epoch time:      09050.88688318
Element set:     102
Inclination:      067.0538 deg
RA of node:       006.5387 deg
Eccentricity:    0.0005404
Arg of perigee:   259.3833 deg
Mean anomaly:     100.6665 deg
Mean motion:   14.29548097 rev/day
Decay rate:       1.11e-06 rev/day^2
Epoch rev:           38581
Checksum:              311

Satellite: SO-50
Catalog number: 27607
Epoch time:      09050.47293040
Element set:     818
Inclination:      064.5595 deg
RA of node:       022.6047 deg
Eccentricity:    0.0078623
Arg of perigee:   230.9581 deg
Mean anomaly:     128.4528 deg
Mean motion:   14.71416328 rev/day
Decay rate:       1.00e-06 rev/day^2
Epoch rev:           33135
Checksum:              289

Satellite: CO-55
Catalog number: 27844
Epoch time:      09049.24571092
Element set:    0515
Inclination:      098.7161 deg
RA of node:       060.0793 deg
Eccentricity:    0.0010401
Arg of perigee:   123.1987 deg
Mean anomaly:     237.0184 deg
Mean motion:   14.20622622 rev/day
Decay rate:        2.0e-07 rev/day^2
Epoch rev:           29237
Checksum:              280

Satellite: CO-57
Catalog number: 27848
Epoch time:      09050.54513062
Element set:     462
Inclination:      098.7172 deg
RA of node:       060.4246 deg
Eccentricity:    0.0010340
Arg of perigee:   124.4891 deg
Mean anomaly:     235.7268 deg
Mean motion:   14.20427135 rev/day
Decay rate:        1.7e-07 rev/day^2
Epoch rev:           29252
Checksum:              287

Satellite: AO-51
Catalog number: 28375
Epoch time:      09050.51739396
Element set:     321
Inclination:      098.0563 deg
RA of node:       066.9582 deg
Eccentricity:    0.0084369
Arg of perigee:   121.6765 deg
Mean anomaly:     239.2690 deg
Mean motion:   14.40633400 rev/day
Decay rate:        3.0e-08 rev/day^2
Epoch rev:           24401
Checksum:              301

Satellite: CO-56
Catalog number: 28941
Epoch time:      09050.47929941
Element set:     833
Inclination:      098.1275 deg
RA of node:       204.1193 deg
Eccentricity:    0.0119055
Arg of perigee:   213.5933 deg
Mean anomaly:     145.7763 deg
Mean motion:   15.71786257 rev/day
Decay rate:     4.8723e-04 rev/day^2
Epoch rev:           16868
Checksum:              350

Satellite: CP3
Catalog number: 31128
Epoch time:      09050.79790202
Element set:     560
Inclination:      098.0057 deg
RA of node:       109.3264 deg
Eccentricity:    0.0101661
Arg of perigee:   289.1053 deg
Mean anomaly:     069.9140 deg
Mean motion:   14.52018655 rev/day
Decay rate:       -4.8e-07 rev/day^2
Epoch rev:            9786
Checksum:              295

Satellite: CP4
Catalog number: 31132
Epoch time:      09050.70402302
Element set:     538
Inclination:      098.0083 deg
RA of node:       112.6423 deg
Eccentricity:    0.0084462
Arg of perigee:   279.2452 deg
Mean anomaly:     079.9200 deg
Mean motion:   14.55183640 rev/day
Decay rate:       -2.0e-08 rev/day^2
Epoch rev:            9794
Checksum:              271

Satellite: CO-65
Catalog number: 32785
Epoch time:      09049.18420443
Element set:    0303
Inclination:      097.9618 deg
RA of node:       114.0551 deg
Eccentricity:    0.0016079
Arg of perigee:   059.8139 deg
Mean anomaly:     300.4663 deg
Mean motion:   14.81449032 rev/day
Decay rate:       -3.0e-07 rev/day^2
Epoch rev:           04382
Checksum:              295

/EX
SB KEPS @ AMSAT  $ORB09050.W
Orbital Elements  09050.WEATHER

HR AMSAT ORBITAL ELEMENTS FOR WEATHER SATELLITES
FROM WA5QGD FORT WORTH,TX February 19, 2009
Send Subscribe/unsubscribe to KEPS at 
http://www.amsat.org/mailman/listinfo/keps
BID: ORB09050.W
TO ALL RADIO AMATEURS BT

Satellite: NOAA-10
Catalog number: 16969
Epoch time:      09050.11212664
Element set:     507
Inclination:      098.7049 deg
RA of node:       077.3371 deg
Eccentricity:    0.0012332
Arg of perigee:   177.8774 deg
Mean anomaly:     182.2477 deg
Mean motion:   14.27379650 rev/day
Decay rate:       -9.7e-07 rev/day^2
Epoch rev:           16666
Checksum:              326

